Terminal Aerodrome Forecast
Issued by NWS Lubbock, TX

Home | Current Version | Previous Version | Text Only | Print | Product List | Glossary On
Versions: 1 2 3 4 5 6 7 8 9 10 11 12 13 14 15 16 17 18 19 20 21 22 23 24 25 26 27 28 29 30 31 32 33 34 35 36 37 38 39 40 41 42 43
000
FTUS44 KLUB 210500 AAA
TAFLBB
TAF AMD
KLBB 210521Z 2106/2206 12006KT 5SM BR BKN005 OVC080
     FM210800 13006KT 2SM -DZ BR SCT004 OVC005
     FM211600 11010KT P6SM SCT008 BKN015
     FM211900 10012KT P6SM SCT035 SCT090=

USA.gov is the U.S. government's official web portal to all federal, state and local government web resources and services.